Regional Weather Roundup
Issued by NWS

Home | Current Version | Previous Version | Text Only | Print | Product List | Glossary On
Versions: 1 2 3 4 5 6 7 8 9 10 11 12 13 14 15 16 17 18 19 20 21 22 23 24 25 26 27
000
ASUS42 KKEY 250010
RWRKEY

FLORIDA REGIONAL WEATHER ROUNDUP FOR THE FLORIDA KEYS
NATIONAL WEATHER SERVICE KEY WEST FLORIDA
700 PM EST TUE JAN 24 2017

...SOUTH FLORIDA AND THE KEYS...

CITY           SKY/WX    TMP DP  RH WIND       PRES   REMARKS
FORT MYERS     PTCLDY    67  60  78 NW7       29.95R
SW REGIONAL AP CLEAR     67  58  72 W3        29.95R
NAPLES         CLEAR     68  62  81 W3        29.95R
MIAMI          CLEAR     73  57  57 W7        29.94R
WEST KENDALL   CLEAR     68  59  73 W12       29.95R
HOMESTEAD      CLEAR     68  61  76 W12       29.94R
MARATHON       CLEAR     73  61  65 W8        29.97R
BOCA CHICA NAS PTCLDY    71  60  68 NW5       29.98R
KEY WEST INTL  PTCLDY    72  63  73 NW3       29.98R

...INTERNATIONAL WEATHER...

CITY           SKY/WX    TMP DP  RH WIND       PRES   REMARKS
NASSAU BAHAMAS PTCLDY    72  55  56 W7        29.96R
CANCUN MEXICO  CLEAR     70  61  73 NE3       29.96R
COZUMEL MEXICO CLEAR     70  63  78 SE5       29.94R

ADJACENT COASTAL WATERS...

STATION/POSITION TIME  SKY/WX   TEMP    WIND        PRES    WAVE
                                AIR SEA DIR/SP/G            HT/PER
                 (UTC)          (F)     (DEG/KT/KT) (MB)    (FT/S)
PULASKI SHOAL LI 0000            73     290/  6/  6 1014.9R
SAND KEY         2350            72     310/  7/  9 1015.6R
LONG KEY         2300            71 73  320/ 11/ 12 1014.7R
MOLASSES REEF    0000                   300/ 14       N/A
FOWEY ROCKS      0000            71 73  260/ 18/ 19 1014.6R

$$




USA.gov is the U.S. government's official web portal to all federal, state and local government web resources and services.